TITAN 3C TRANSTAGE DEB, 26524

Orbit data source: Space-Track

TITAN 3C TRANSTAGE DEB, 26524 is space debris in HEO originally from a launch on Tue, 21 Dec 1965 UTC launched from the Air Force Eastern Test Range (AFETR). Debris objects in space refer to the collection of defunct objects orbiting the Earth. Examples of debris include non-operational satellites, rocket bodies, and fragments generated from explosions, collisions, or faulty payload assembly.

Loading next visibility...
Identifier
26524, 1965-108AK
Orbit
HEO
Country
Flag of USUS
Related business
Manufacturer
Unknown
Mission
Spacecraft
Bus & Motor
Unknown
Mass
Unknown
Launch date (UTC)
1965-12-21 (60 years ago)
Launch vehicle
Unknown
Launch site
Air Force Eastern Test Range (AFETR)
Object type
Payload
Rocket body
Debris
Shape & HBR
Unknown shape, 0.1 m
Radar Cross Section
Medium (>0.1 m² and <1 m²)

Expand to show TLE details & history
Last TLE update: 4 days ago

TLE from 4 days ago
0 TITAN 3C TRANSTAGE DEB
1 26524U 65108AK  26101.41959955 -.00000049  00000-0 -10595-2 0  9993
2 26524  26.5281 119.1087 6696033 143.8678 359.4162  2.81768810 41974
Epoch: 2026-04-11T10:04Z
TLE epoch observation values (Epoch: 2026-04-11T10:04:13.401Z)
Latitude
16.68183°
Longitude
-88.23094°
Altitude
627.801 km
Speed
9.746 km/s
True Right ascension
17h 29m 51s
True Declination
16° 35' 09"
Sunlit
Object was in daylight at epoch
Visualization orbit readout
Latitude
Unknown
Longitude
Unknown
Altitude
Unknown
Speed
Unknown
Apparent Right ascension
Unknown
Apparent Declination
Unknown
Sunlit
N/A
Visualization observer readout
Local Sidereal Time
12:25:34
Azimuth
Unknown
Elevation
Unknown
Doppler factor
Unknown
Orbital elements
Apogee altitude
28,980.303 km
Perigee altitude
618.921 km
Semi-major axis
21,177.749 km
Eccentricity
0.6696
Inclination
26.5281°
RAAN
119.1087°
Arg. of periapsis
143.8678°
True anomaly
356.03048°
Mean anomaly
359.4162°
Eccentric anomaly
358.2336°
Mean motion
0.70424 °/min
Orbital period
511.19 mins
BSTAR
-0.0010595
Loading maneuver chart data...
Computing Atmospheric mass density...

Documentation

Showing up to 5 results
|